Showing default

YAOGAN-31 H, 47693

Orbit data source: Space-Track

YAOGAN-31 H, 47693 is a payload satellite owned by PLA SSF (CN) in LEO that was launched on Wed, 24 Feb 2021 UTC via a CHANG ZHENG 4C launch vehicle from the Jiuquan Satellite Launch Center, China (JSC). Payload-class satellites include a variety of spacecraft equipped with specific instruments for various scientific and technological missions. These include communications satellites like Starlink; space stations such as the ISS; scientific satellites like the Hubble; Earth observation satellites from companies like Planet Labs, Umbra, and HawkEye 360; GPS; miniature CubeSats for education and research; and military/defense satellites.

Loading next visibility...
Identifier
47693, 2021-014C
Orbit
LEO
Country
Flag of CNCN / PRC
Related business
Manufacturer
DFH
Mission
Operational Defense Sigint
Bus & Motor
Unknown
Mass
~500 kg wet, ~500 kg dry
Launch date (UTC)
2021-02-24 (5 years ago)
Launch vehicle
CHANG ZHENG 4C
Launch site
Jiuquan Satellite Launch Center, China (JSC)
Object type
Payload
Rocket body
Debris
Shape & HBR
Box + 2 Pan, 0.5 m
Radar Cross Section
0.446 m², Large (>1 m²)

Expand to show TLE details & history
Last TLE update: 21 hours ago

TLE from 21 hours ago
0 YAOGAN-31 H
1 47693U 21014C   26172.55111571 -.00000052  00000-0  59191-4 0  9998
2 47693  63.3995 187.4323 0177727   0.9313 359.2010 13.45449286261264
Epoch: 2026-06-21T13:13Z
TLE epoch observation values (Epoch: 2026-06-21T13:13:36.397Z)
Latitude
-0.00004°
Longitude
79.28086°
Altitude
958.103 km
Speed
7.438 km/s
True Right ascension
12h 29m 43s
True Declination
0° 00' 00"
Sunlit
Object was in daylight at epoch
Visualization orbit readout
Latitude
Unknown
Longitude
Unknown
Altitude
Unknown
Speed
Unknown
Apparent Right ascension
Unknown
Apparent Declination
Unknown
Sunlit
N/A
Visualization observer readout
Local Sidereal Time
21:24:10
Azimuth
Unknown
Elevation
Unknown
Doppler factor
Unknown
Orbital elements
Apogee altitude
1,220.569 km
Perigee altitude
955.186 km
Semi-major axis
7,466.015 km
Eccentricity
0.01777
Inclination
63.3995°
RAAN
187.4323°
Arg. of periapsis
0.9313°
True anomaly
359.17196°
Mean anomaly
359.201°
Eccentric anomaly
359.18654°
Mean motion
3.36442 °/min
Orbital period
107 mins
BSTAR
0.000059191
Loading maneuver chart data...
Computing Atmospheric mass density...
Loading historical data...
Loading historical data...
Loading historical data...
Loading historical data...
Loading historical data...
Loading historical data...
Loading historical data...

Documentation

Showing up to 5 results
|